Regional Weather Roundup
Issued by NWS

Home | Current Version | Previous Version | Graphics & Text | Print | Product List | Glossary On
Versions: 1 2 3 4 5 6 7 8 9 10 11 12 13 14 15 16 17 18 19 20 21 22 23 24 25 26 27 28 29 30 31 32 33 34 35 36 37 38 39 40 41 42 43 44 45 46 47 48 49 50
364
ASUS43 KBIS 241410
RWRND

NORTH DAKOTA REGIONAL WEATHER ROUNDUP
NATIONAL WEATHER SERVICE BISMARCK ND
900 AM CDT FRI MAR 24 2017

NOTE: "FAIR" INDICATES FEW OR NO CLOUDS BELOW 12,000 FEET WITH NO
SIGNIFICANT WEATHER AND/OR OBSTRUCTIONS TO VISIBILITY.


NDZ001>003-009>011-017-241500-
NORTHWEST NORTH DAKOTA

CITY           SKY/WX    TMP DP  RH WIND       PRES   REMARKS
WILLISTON      FAIR      31  29  92 N6        30.11R FOG
MINOT          FAIR      29  26  89 NE9       30.14R
MINOT AFB      SUNNY     28  24  86 E7        30.13R
$$

NDZ018>021-031>035-040>046-241500-
SOUTHWEST NORTH DAKOTA

CITY           SKY/WX    TMP DP  RH WIND       PRES   REMARKS
BISMARCK       FAIR      32  29  88 NE5       30.11R
DICKINSON      FAIR      29  28  96 CALM      30.07R FOG
GARRISON         N/A     29  25  85 NE6       30.12R
HETTINGER ARPT FOG       32  32 100 NW7       30.08R VSB<1/4
$$

NDZ004>008-012>016-024-026-027-054-241500-
NORTHEAST NORTH DAKOTA

CITY           SKY/WX    TMP DP  RH WIND       PRES   REMARKS
GRAND FORKS    MOSUNNY   31  27  85 N16       30.13R WCI  20
GRND FRKS AFB  SUNNY     30  26  86 N15       30.14R WCI  19
DEVILS LAKE    FAIR      27  23  85 N13       30.14R WCI  16
$$

NDZ022-023-025-028>030-036>039-047>053-241500-
SOUTHEAST NORTH DAKOTA

CITY           SKY/WX    TMP DP  RH WIND       PRES   REMARKS
FARGO          CLOUDY    35  34  96 N12       30.09R FOG
JAMESTOWN      FAIR      31  26  82 NE12      30.09R
$$





USA.gov is the U.S. government's official web portal to all federal, state and local government web resources and services.